• In Österreich
  • Länderverzeichnis
  • Für 7 Tage
  • Wassertemperatur
  • Satellitenkarten
  • Wetterkarte
  • News
  • Widgets
  • user-avatar
    Anmelden

    Stündliche Wetter Berat

    Heute, 20 Mai, Sonntag

    Zeit Temperatur Niederschläge Wind Luftdruck Luftfeuchtigkeit
    00:00 +18°C° 0 mm 2 m/S 743 mmHg 84%
    01:00 +18°C° 0 mm 2 m/S 743 mmHg 84%
    02:00 +17°C° 0 mm 2 m/S 743 mmHg 84%
    03:00 +17°C° 0 mm 2 m/S 743 mmHg 84%
    04:00 +17°C° 0 mm 2 m/S 743 mmHg 83%
    05:00 +19°C° 0 mm 2 m/S 743 mmHg 79%
    06:00 +20°C° 0 mm 2 m/S 743 mmHg 75%
    07:00 +23°C° 0 mm 2 m/S 743 mmHg 70%
    08:00 +25°C° 0 mm 2 m/S 743 mmHg 65%
    09:00 +26°C° 0 mm 2 m/S 743 mmHg 60%
    10:00 +27°C° 0 mm 1 m/S 743 mmHg 55%
    11:00 +27°C° 0,2 mm 2 m/S 743 mmHg 54%
    12:00 +28°C° 0,2 mm 2 m/S 743 mmHg 52%
    13:00 +29°C° 0,2 mm 2 m/S 743 mmHg 50%
    14:00 +28°C° 0,7 mm 2 m/S 743 mmHg 53%
    15:00 +27°C° 0,7 mm 2 m/S 742 mmHg 55%
    16:00 +27°C° 0,7 mm 2 m/S 742 mmHg 58%
    17:00 +25°C° 0,6 mm 2 m/S 742 mmHg 63%
    18:00 +24°C° 0,6 mm 2 m/S 742 mmHg 69%
    19:00 +22°C° 0,6 mm 1 m/S 742 mmHg 75%
    20:00 +20°C° 0 mm 2 m/S 742 mmHg 76%
    21:00 +20°C° 0 mm 2 m/S 743 mmHg 78%
    22:00 +19°C° 0 mm 2 m/S 743 mmHg 79%
    23:00 +19°C° 0,1 mm 2 m/S 743 mmHg 80%

    Morgen, 21 Mai, Montag

    Zeit Temperatur Niederschläge Wind Luftdruck Luftfeuchtigkeit
    00:00 +18°C° 0,1 mm 2 m/S 743 mmHg 81%
    01:00 +18°C° 0,1 mm 2 m/S 743 mmHg 82%
    02:00 +18°C° 0,2 mm 2 m/S 743 mmHg 84%
    03:00 +18°C° 0,2 mm 2 m/S 742 mmHg 85%
    04:00 +18°C° 0,2 mm 2 m/S 742 mmHg 86%
    05:00 +19°C° 0,2 mm 3 m/S 742 mmHg 85%
    06:00 +20°C° 0,2 mm 3 m/S 742 mmHg 83%
    07:00 +21°C° 0,2 mm 3 m/S 743 mmHg 82%
    08:00 +23°C° 0 mm 2 m/S 743 mmHg 76%
    09:00 +24°C° 0 mm 2 m/S 743 mmHg 70%
    10:00 +26°C° 0 mm 2 m/S 743 mmHg 64%
    11:00 +26°C° 0,1 mm 2 m/S 743 mmHg 61%
    12:00 +27°C° 0,1 mm 2 m/S 742 mmHg 58%
    13:00 +28°C° 0,1 mm 2 m/S 742 mmHg 55%
    14:00 +28°C° 0,3 mm 2 m/S 742 mmHg 55%
    15:00 +28°C° 0,3 mm 2 m/S 742 mmHg 56%
    16:00 +28°C° 0,3 mm 2 m/S 742 mmHg 57%
    17:00 +26°C° 0,7 mm 1 m/S 742 mmHg 64%
    18:00 +24°C° 0,7 mm 1 m/S 742 mmHg 70%
    19:00 +22°C° 0,7 mm 1 m/S 742 mmHg 77%
    20:00 +22°C° 0,2 mm 1 m/S 742 mmHg 79%
    21:00 +21°C° 0,2 mm 1 m/S 743 mmHg 80%
    22:00 +20°C° 0,2 mm 1 m/S 743 mmHg 82%
    23:00 +20°C° 0 mm 1 m/S 743 mmHg 82%

    übermorgen, 22 Mai, Dienstag

    Zeit Temperatur Niederschläge Wind Luftdruck Luftfeuchtigkeit
    00:00 +20°C° 0 mm 1 m/S 743 mmHg 83%
    01:00 +20°C° 0 mm 1 m/S 743 mmHg 83%
    02:00 +20°C° 0 mm 1 m/S 743 mmHg 83%
    03:00 +19°C° 0 mm 1 m/S 743 mmHg 83%
    04:00 +18°C° 0 mm 2 m/S 743 mmHg 84%
    05:00 +21°C° 0 mm 1 m/S 744 mmHg 80%
    06:00 +22°C° 0 mm 1 m/S 744 mmHg 76%
    07:00 +24°C° 0 mm 1 m/S 744 mmHg 72%
    08:00 +25°C° 0,2 mm 2 m/S 744 mmHg 67%
    09:00 +26°C° 0,2 mm 2 m/S 745 mmHg 62%
    10:00 +28°C° 0,2 mm 2 m/S 745 mmHg 56%
    11:00 +28°C° 0,7 mm 2 m/S 745 mmHg 57%
    12:00 +28°C° 0,7 mm 2 m/S 745 mmHg 57%
    13:00 +28°C° 0,7 mm 2 m/S 745 mmHg 58%
    14:00 +28°C° 0,4 mm 2 m/S 744 mmHg 59%
    15:00 +27°C° 0,4 mm 2 m/S 744 mmHg 60%
    16:00 +27°C° 0,4 mm 2 m/S 744 mmHg 62%
    17:00 +26°C° 0,2 mm 2 m/S 744 mmHg 68%
    18:00 +24°C° 0,2 mm 1 m/S 744 mmHg 74%
    19:00 +22°C° 0,2 mm 1 m/S 745 mmHg 81%
    20:00 +22°C° 0 mm 1 m/S 745 mmHg 82%
    21:00 +21°C° 0 mm 1 m/S 745 mmHg 82%
    22:00 +21°C° 0 mm 1 m/S 746 mmHg 83%
    23:00 +21°C° 0,1 mm 1 m/S 745 mmHg 83%

    23 Mai, Mittwoch

    Zeit Temperatur Niederschläge Wind Luftdruck Luftfeuchtigkeit
    00:00 +20°C° 0,1 mm 1 m/S 745 mmHg 83%
    01:00 +19°C° 0,1 mm 2 m/S 745 mmHg 83%
    02:00 +19°C° 0,1 mm 2 m/S 745 mmHg 83%
    03:00 +19°C° 0,1 mm 2 m/S 745 mmHg 83%
    04:00 +20°C° 0,1 mm 1 m/S 745 mmHg 83%
    05:00 +21°C° 0 mm 1 m/S 745 mmHg 79%
    06:00 +23°C° 0 mm 2 m/S 745 mmHg 74%
    07:00 +24°C° 0 mm 2 m/S 745 mmHg 70%
    08:00 +26°C° 0 mm 2 m/S 745 mmHg 64%
    09:00 +27°C° 0 mm 2 m/S 745 mmHg 57%
    10:00 +28°C° 0 mm 2 m/S 745 mmHg 51%
    11:00 +29°C° 0,1 mm 2 m/S 745 mmHg 50%
    12:00 +29°C° 0,1 mm 3 m/S 744 mmHg 50%
    13:00 +30°C° 0,1 mm 3 m/S 744 mmHg 49%
    14:00 +29°C° 1,3 mm 3 m/S 744 mmHg 55%
    15:00 +28°C° 1,3 mm 3 m/S 743 mmHg 61%
    16:00 +26°C° 1,3 mm 3 m/S 743 mmHg 67%
    17:00 +25°C° 1,2 mm 2 m/S 743 mmHg 72%
    18:00 +24°C° 1,2 mm 1 m/S 743 mmHg 77%
    19:00 +22°C° 1,2 mm 1 m/S 743 mmHg 82%
    20:00 +22°C° 0,3 mm 1 m/S 743 mmHg 82%
    21:00 +21°C° 0,3 mm 1 m/S 743 mmHg 83%
    22:00 +20°C° 0,3 mm 2 m/S 743 mmHg 84%
    23:00 +20°C° 0,5 mm 1 m/S 743 mmHg 86%

    24 Mai, Donnerstag

    Zeit Temperatur Niederschläge Wind Luftdruck Luftfeuchtigkeit
    00:00 +20°C° 0,5 mm 1 m/S 743 mmHg 87%
    01:00 +20°C° 0,5 mm 1 m/S 743 mmHg 88%
    02:00 +19°C° 0,2 mm 1 m/S 743 mmHg 89%
    03:00 +19°C° 0,2 mm 1 m/S 742 mmHg 89%
    04:00 +19°C° 0,2 mm 1 m/S 742 mmHg 89%
    05:00 +20°C° 0,1 mm 1 m/S 742 mmHg 86%
    06:00 +21°C° 0,1 mm 1 m/S 742 mmHg 83%
    07:00 +22°C° 0,1 mm 1 m/S 742 mmHg 79%
    08:00 +24°C° 0,3 mm 1 m/S 742 mmHg 73%
    09:00 +25°C° 0,3 mm 1 m/S 742 mmHg 68%
    10:00 +26°C° 0,3 mm 2 m/S 742 mmHg 62%
    11:00 +26°C° 0,3 mm 2 m/S 742 mmHg 61%
    12:00 +27°C° 0,3 mm 3 m/S 742 mmHg 60%
    13:00 +27°C° 0,3 mm 3 m/S 741 mmHg 59%
    14:00 +27°C° 0,6 mm 3 m/S 741 mmHg 63%
    15:00 +26°C° 0,6 mm 3 m/S 741 mmHg 67%
    16:00 +25°C° 0,6 mm 3 m/S 741 mmHg 70%
    17:00 +24°C° 0,6 mm 3 m/S 741 mmHg 75%
    18:00 +23°C° 0,6 mm 2 m/S 741 mmHg 81%
    19:00 +20°C° 0,6 mm 2 m/S 741 mmHg 86%
    20:00 +20°C° 0 mm 2 m/S 741 mmHg 86%
    21:00 +20°C° 0 mm 1 m/S 741 mmHg 86%
    22:00 +20°C° 0 mm 1 m/S 741 mmHg 86%
    23:00 +20°C° 0 mm 1 m/S 741 mmHg 85%

    25 Mai, Freitag

    Zeit Temperatur Niederschläge Wind Luftdruck Luftfeuchtigkeit
    00:00 +19°C° 0 mm 1 m/S 741 mmHg 83%
    01:00 +19°C° 0 mm 1 m/S 741 mmHg 82%
    02:00 +19°C° 0 mm 1 m/S 741 mmHg 81%
    03:00 +18°C° 0 mm 2 m/S 741 mmHg 80%
    04:00 +18°C° 0 mm 2 m/S 741 mmHg 80%
    05:00 +19°C° 0 mm 2 m/S 741 mmHg 76%
    06:00 +21°C° 0 mm 2 m/S 742 mmHg 72%
    07:00 +24°C° 0 mm 2 m/S 742 mmHg 68%
    08:00 +25°C° 0 mm 2 m/S 742 mmHg 62%
    09:00 +27°C° 0 mm 2 m/S 742 mmHg 56%
    10:00 +28°C° 0 mm 2 m/S 742 mmHg 50%
    11:00 +29°C° 0,2 mm 2 m/S 742 mmHg 50%
    12:00 +29°C° 0,2 mm 3 m/S 742 mmHg 50%
    13:00 +30°C° 0,2 mm 3 m/S 742 mmHg 50%
    14:00 +29°C° 0,9 mm 3 m/S 742 mmHg 54%
    15:00 +28°C° 0,9 mm 3 m/S 742 mmHg 57%
    16:00 +28°C° 0,9 mm 3 m/S 741 mmHg 61%
    17:00 +26°C° 0,2 mm 2 m/S 742 mmHg 66%
    18:00 +25°C° 0,2 mm 2 m/S 742 mmHg 72%
    19:00 +23°C° 0,2 mm 1 m/S 742 mmHg 77%
    20:00 +22°C° 0 mm 1 m/S 742 mmHg 78%
    21:00 +22°C° 0 mm 1 m/S 742 mmHg 78%
    22:00 +21°C° 0 mm 1 m/S 743 mmHg 79%
    23:00 +20°C° 0 mm 2 m/S 743 mmHg 79%
    Mehr zeigen